Time,TemperatureF,DewpointF,PressureIn,WindDirection,WindDirectionDegrees,WindSpeedMPH,WindSpeedGustMPH,Humidity,HourlyPrecipIn,Conditions,Clouds,dailyrainin,SoftwareType,DateUTC
2013-04-01 00:20:00,41.1,39.2,29.72,ESE,115,0.0,11.0,93,0.12,,,0.03,Wunderground v.1.15,2013-04-01 04:20:00,
2013-04-01 00:25:00,41.1,39.5,29.71,ESE,115,0.0,11.0,94,0.20,,,0.05,Wunderground v.1.15,2013-04-01 04:25:00,
2013-04-01 00:30:00,41.0,39.4,29.71,ESE,115,0.0,11.0,94,0.26,,,0.07,Wunderground v.1.15,2013-04-01 04:30:00,
2013-04-01 00:40:00,40.9,39.3,29.70,ESE,115,0.0,11.0,94,0.16,,,0.09,Wunderground v.1.15,2013-04-01 04:40:00,
2013-04-01 00:50:00,40.9,39.3,29.69,ESE,115,0.0,11.0,94,0.07,,,0.10,Wunderground v.1.15,2013-04-01 04:50:00,
2013-04-01 10:35:00,47.1,41.6,29.56,SW,236,1.0,1.0,81,0.00,,,0.39,Wunderground v.1.15,2013-04-01 14:35:00,
2013-04-01 10:45:00,48.1,42.2,29.56,WSW,237,0.0,11.0,80,0.00,,,0.39,Wunderground v.1.15,2013-04-01 14:45:00,
2013-04-01 10:55:00,48.5,42.0,29.56,West,270,2.0,2.0,78,0.00,,,0.39,Wunderground v.1.15,2013-04-01 14:55:00,
2013-04-01 11:05:00,49.3,43.1,29.57,WSW,246,1.0,11.0,79,0.00,,,0.39,Wunderground v.1.15,2013-04-01 15:05:00,
2013-04-01 11:15:00,50.7,43.1,29.55,WNW,295,1.0,11.0,75,0.00,,,0.39,Wunderground v.1.15,2013-04-01 15:15:00,
2013-04-01 11:25:00,50.9,42.9,29.55,West,276,1.0,2.0,74,0.00,,,0.39,Wunderground v.1.15,2013-04-01 15:25:00,
2013-04-01 11:35:00,51.2,42.8,29.55,West,264,2.0,11.0,73,0.00,,,0.39,Wunderground v.1.15,2013-04-01 15:35:00,
2013-04-01 11:45:00,52.6,43.5,29.54,West,271,1.0,6.0,71,0.00,,,0.39,Wunderground v.1.15,2013-04-01 15:45:00,
2013-04-01 11:55:00,54.0,43.7,29.53,East,88,1.0,11.0,68,0.00,,,0.39,Wunderground v.1.15,2013-04-01 15:55:00,
2013-04-01 12:05:00,53.9,44.0,29.53,NNE,28,2.0,11.0,69,0.00,,,0.39,Wunderground v.1.15,2013-04-01 16:05:00,
2013-04-01 12:10:00,54.2,42.7,29.53,West,281,2.0,11.0,65,0.00,,,0.39,Wunderground v.1.15,2013-04-01 16:10:00,
2013-04-01 12:20:00,54.1,43.4,29.52,West,259,2.0,11.0,67,0.00,,,0.39,Wunderground v.1.15,2013-04-01 16:20:00,
2013-04-01 12:30:00,53.7,43.8,29.52,WSW,246,2.0,2.0,69,0.00,,,0.39,Wunderground v.1.15,2013-04-01 16:30:00,
2013-04-01 12:40:00,54.2,43.5,29.52,West,263,2.0,2.0,67,0.00,,,0.39,Wunderground v.1.15,2013-04-01 16:40:00,
2013-04-01 12:50:00,54.8,43.3,29.52,West,260,1.0,1.0,65,0.00,,,0.39,Wunderground v.1.15,2013-04-01 16:50:00,
2013-04-01 12:55:00,55.2,43.6,29.52,SSW,209,2.0,4.0,65,0.00,,,0.39,Wunderground v.1.15,2013-04-01 16:55:00,
2013-04-01 13:05:00,56.0,43.6,29.51,West,279,3.0,11.0,63,0.00,,,0.39,Wunderground v.1.15,2013-04-01 17:05:00,
2013-04-01 13:15:00,57.2,43.9,29.50,West,269,2.0,8.0,61,0.00,,,0.39,Wunderground v.1.15,2013-04-01 17:15:00,
2013-04-01 13:25:00,57.0,43.7,29.50,West,265,3.0,4.0,61,0.00,,,0.39,Wunderground v.1.15,2013-04-01 17:25:00,
2013-04-01 13:35:00,56.9,42.7,29.50,WSW,250,3.0,11.0,59,0.00,,,0.39,Wunderground v.1.15,2013-04-01 17:35:00,
2013-04-01 13:40:00,57.2,43.0,29.49,West,277,3.0,3.0,59,0.00,,,0.39,Wunderground v.1.15,2013-04-01 17:40:00,
2013-04-01 13:50:00,57.2,42.5,29.49,WSW,250,2.0,2.0,58,0.00,,,0.39,Wunderground v.1.15,2013-04-01 17:50:00,
2013-04-01 14:00:00,57.3,41.7,29.49,West,268,3.0,11.0,56,0.00,,,0.39,Wunderground v.1.15,2013-04-01 18:00:00,
2013-04-01 14:05:00,57.1,41.5,29.48,SW,217,2.0,11.0,56,0.00,,,0.39,Wunderground v.1.15,2013-04-01 18:05:00,
2013-04-01 14:15:00,58.1,42.5,29.47,West,260,2.0,11.0,56,0.00,,,0.39,Wunderground v.1.15,2013-04-01 18:15:00,
2013-04-01 14:25:00,57.8,42.2,29.47,SSE,163,3.0,11.0,56,0.00,,,0.39,Wunderground v.1.15,2013-04-01 18:25:00,
2013-04-01 14:35:00,58.7,42.6,29.46,West,263,2.0,11.0,55,0.00,,,0.39,Wunderground v.1.15,2013-04-01 18:35:00,
2013-04-01 14:45:00,58.8,41.7,29.46,WSW,248,2.0,5.0,53,0.00,,,0.39,Wunderground v.1.15,2013-04-01 18:45:00,
2013-04-01 14:55:00,58.6,41.5,29.46,WSW,251,4.0,11.0,53,0.00,,,0.39,Wunderground v.1.15,2013-04-01 18:55:00,
2013-04-01 15:05:00,57.1,41.1,29.47,West,269,2.0,11.0,55,0.00,,,0.39,Wunderground v.1.15,2013-04-01 19:05:00,
2013-04-01 15:15:00,52.2,43.1,29.50,SE,128,3.0,11.0,71,0.00,,,0.39,Wunderground v.1.15,2013-04-01 19:15:00,
2013-04-01 15:25:00,47.6,42.1,29.51,West,267,2.0,11.0,81,0.00,,,0.40,Wunderground v.1.15,2013-04-01 19:25:00,
2013-04-01 15:35:00,45.7,41.8,29.52,SSW,206,1.0,11.0,86,0.26,,,0.43,Wunderground v.1.15,2013-04-01 19:35:00,
2013-04-01 15:40:00,45.0,41.4,29.52,West,271,1.0,1.0,87,0.10,,,0.43,Wunderground v.1.15,2013-04-01 19:40:00,
2013-04-01 15:50:00,44.7,41.4,29.52,SSE,164,1.0,1.0,88,0.04,,,0.43,Wunderground v.1.15,2013-04-01 19:50:00,
2013-04-01 16:00:00,45.2,42.4,29.51,SE,146,0.0,11.0,90,0.00,,,0.43,Wunderground v.1.15,2013-04-01 20:00:00,
2013-04-01 16:10:00,46.1,42.4,29.50,South,178,2.0,11.0,87,0.00,,,0.43,Wunderground v.1.15,2013-04-01 20:10:00,
2013-04-01 16:20:00,47.3,42.1,29.51,SW,227,1.0,1.0,82,0.00,,,0.43,Wunderground v.1.15,2013-04-01 20:20:00,
2013-04-01 16:30:00,47.7,41.2,29.50,West,271,2.0,2.0,78,0.00,,,0.43,Wunderground v.1.15,2013-04-01 20:30:00,
2013-04-01 16:40:00,47.8,40.3,29.51,WSW,250,3.0,3.0,75,0.00,,,0.43,Wunderground v.1.15,2013-04-01 20:40:00,
2013-04-01 16:45:00,47.6,40.1,29.52,West,267,3.0,11.0,75,0.00,,,0.43,Wunderground v.1.15,2013-04-01 20:45:00,
2013-04-01 16:55:00,47.2,38.6,29.53,West,259,3.0,11.0,72,0.00,,,0.43,Wunderground v.1.15,2013-04-01 20:55:00,
2013-04-01 17:05:00,46.8,37.5,29.54,West,273,3.0,11.0,70,0.00,,,0.43,Wunderground v.1.15,2013-04-01 21:05:00,
2013-04-01 17:15:00,46.1,37.2,29.55,SE,126,2.0,11.0,71,0.00,,,0.43,Wunderground v.1.15,2013-04-01 21:15:00,
2013-04-01 17:25:00,45.0,35.1,29.56,West,280,3.0,11.0,68,0.00,,,0.43,Wunderground v.1.15,2013-04-01 21:25:00,
2013-04-01 17:35:00,45.0,33.9,29.57,ESE,119,2.0,11.0,65,0.00,,,0.43,Wunderground v.1.15,2013-04-01 21:35:00,
2013-04-01 17:45:00,44.2,32.8,29.58,ESE,106,1.0,11.0,64,0.00,,,0.43,Wunderground v.1.15,2013-04-01 21:45:00,
2013-04-01 17:55:00,44.0,31.0,29.58,West,261,3.0,5.0,60,0.00,,,0.43,Wunderground v.1.15,2013-04-01 21:55:00,
2013-04-01 18:00:00,43.8,30.4,29.58,West,259,3.0,3.0,59,0.00,,,0.43,Wunderground v.1.15,2013-04-01 22:00:00,
2013-04-01 18:10:00,43.4,29.6,29.59,WSW,256,2.0,2.0,58,0.00,,,0.43,Wunderground v.1.15,2013-04-01 22:10:00,
2013-04-01 18:15:00,43.1,29.7,29.59,WSW,248,3.0,3.0,59,0.00,,,0.43,Wunderground v.1.15,2013-04-01 22:15:00,
2013-04-01 18:25:00,42.5,28.8,29.60,WSW,244,2.0,11.0,58,0.00,,,0.43,Wunderground v.1.15,2013-04-01 22:25:00,
2013-04-01 18:35:00,42.2,28.9,29.60,West,264,2.0,11.0,59,0.00,,,0.43,Wunderground v.1.15,2013-04-01 22:35:00,
2013-04-01 18:45:00,41.6,28.3,29.61,West,275,2.0,7.0,59,0.00,,,0.43,Wunderground v.1.15,2013-04-01 22:45:00,
2013-04-01 18:55:00,40.9,27.2,29.61,SE,138,2.0,11.0,58,0.00,,,0.43,Wunderground v.1.15,2013-04-01 22:55:00,
2013-04-01 19:30:00,39.3,24.0,29.64,WNW,297,1.0,1.0,54,0.00,,,0.43,Wunderground v.1.15,2013-04-01 23:30:00,
2013-04-01 19:40:00,38.8,22.7,29.64,East,81,1.0,1.0,52,0.00,,,0.43,Wunderground v.1.15,2013-04-01 23:40:00,
2013-04-01 19:45:00,38.7,22.1,29.64,WSW,256,1.0,11.0,51,0.00,,,0.43,Wunderground v.1.15,2013-04-01 23:45:00,
2013-04-01 19:55:00,38.4,21.8,29.65,SW,236,2.0,11.0,51,0.00,,,0.43,Wunderground v.1.15,2013-04-01 23:55:00,
2013-04-01 20:05:00,38.0,21.0,29.65,SW,219,1.0,11.0,50,0.00,,,0.43,Wunderground v.1.15,2013-04-02 00:05:00,
2013-04-01 20:15:00,37.6,22.0,29.66,SW,236,0.0,4.0,53,0.00,,,0.43,Wunderground v.1.15,2013-04-02 00:15:00,
2013-04-01 20:20:00,37.2,21.2,29.66,SW,222,1.0,11.0,52,0.00,,,0.43,Wunderground v.1.15,2013-04-02 00:20:00,
2013-04-01 20:33:00,36.9,20.4,29.67,ESE,111,1.0,11.0,51,0.00,,,0.43,Wunderground v.1.15,2013-04-02 00:33:00,
2013-04-01 20:40:00,36.6,21.5,29.67,WNW,303,0.0,11.0,54,0.00,,,0.43,Wunderground v.1.15,2013-04-02 00:40:00,
2013-04-01 20:45:00,36.4,21.3,29.67,WNW,303,0.0,11.0,54,0.00,,,0.43,Wunderground v.1.15,2013-04-02 00:45:00,
2013-04-01 20:55:00,35.8,20.3,29.67,ESE,111,1.0,1.0,53,0.00,,,0.43,Wunderground v.1.15,2013-04-02 00:55:00,
2013-04-01 21:00:00,35.7,20.7,29.67,SE,126,1.0,1.0,54,0.00,,,0.43,Wunderground v.1.15,2013-04-02 01:00:00,
2013-04-01 21:05:00,35.5,19.6,29.67,WSW,240,0.0,11.0,52,0.00,,,0.43,Wunderground v.1.15,2013-04-02 01:05:00,
2013-04-01 21:10:00,35.5,18.7,29.68,SW,236,1.0,1.0,50,0.00,,,0.43,Wunderground v.1.15,2013-04-02 01:10:00,
2013-04-01 21:20:00,35.2,17.0,29.68,SE,128,1.0,11.0,47,0.00,,,0.43,Wunderground v.1.15,2013-04-02 01:20:00,
2013-04-01 21:30:00,35.2,14.9,29.70,SW,219,2.0,11.0,43,0.00,,,0.43,Wunderground v.1.15,2013-04-02 01:30:00,
2013-04-01 21:40:00,34.8,15.1,29.70,ENE,77,2.0,11.0,44,0.00,,,0.43,Wunderground v.1.15,2013-04-02 01:40:00,
2013-04-01 21:50:00,34.4,14.7,29.70,ENE,58,1.0,11.0,44,0.00,,,0.43,Wunderground v.1.15,2013-04-02 01:50:00,
2013-04-01 22:00:00,34.1,15.5,29.71,SSW,211,1.0,11.0,46,0.00,,,0.43,Wunderground v.1.15,2013-04-02 02:00:00,
2013-04-01 22:10:00,33.8,16.2,29.71,SW,218,1.0,11.0,48,0.00,,,0.43,Wunderground v.1.15,2013-04-02 02:10:00,
2013-04-01 22:15:00,33.6,16.9,29.71,WNW,286,2.0,11.0,50,0.00,,,0.43,Wunderground v.1.15,2013-04-02 02:15:00,
2013-04-01 22:25:00,33.2,16.1,29.71,West,261,1.0,11.0,49,0.00,,,0.43,Wunderground v.1.15,2013-04-02 02:25:00,
2013-04-01 22:30:00,33.2,16.1,29.71,SE,126,2.0,2.0,49,0.00,,,0.43,Wunderground v.1.15,2013-04-02 02:30:00,
2013-04-01 22:35:00,33.2,16.1,29.72,ESE,118,2.0,11.0,49,0.00,,,0.43,Wunderground v.1.15,2013-04-02 02:35:00,
2013-04-01 22:45:00,33.0,16.4,29.72,WSW,245,1.0,4.0,50,0.00,,,0.43,Wunderground v.1.15,2013-04-02 02:45:00,
2013-04-01 22:55:00,32.7,16.1,29.73,West,277,1.0,11.0,50,0.00,,,0.43,Wunderground v.1.15,2013-04-02 02:55:00,
2013-04-01 23:05:00,32.5,16.4,29.73,SSE,148,1.0,2.0,51,0.00,,,0.43,Wunderground v.1.15,2013-04-02 03:05:00,
2013-04-01 23:15:00,32.4,15.8,29.73,WNW,301,2.0,2.0,50,0.00,,,0.43,Wunderground v.1.15,2013-04-02 03:15:00,
2013-04-01 23:20:00,32.5,15.9,29.72,ESE,109,3.0,3.0,50,0.00,,,0.43,Wunderground v.1.15,2013-04-02 03:20:00,
2013-04-01 23:50:00,31.7,16.1,29.73,East,82,1.0,11.0,52,0.00,,,0.43,Wunderground v.1.15,2013-04-02 03:50:00,
2013-04-01 23:55:00,31.6,15.5,29.73,SSW,204,1.0,11.0,51,0.00,,,0.43,Wunderground v.1.15,2013-04-02 03:55:00,